Flag for Australia Weather past 2 weeks in Wagga Wagga, New South Wales, Australia

Now
63 °F

Mild.


Feels Like: 63 °F
Forecast: 61 / 80 °F
Wind: 7 mph from Southeast

Location: Wagga Airport

Current Time: Feb 2, 2015 at 2:19:20 AM

Latest Report: Feb 2, 2015 at 2:00 AM


Visibility: N/A

Pressure: 29.86 "Hg

Humidity: 77%

Dew point: 55 °F

Location of Wagga WaggaLocation

Historic Weather in Wagga Wagga — Graph

°F

Wagga Wagga temperature yesterday

Maximum temperature yesterday: 84 °F (at 5:00 PM)
Minimum temperature yesterday: 55 °F (at 6:00 AM)
Average temperature yesterday: 70 °F

Past Weeks' High & Low Weather Summary

 TemperatureHumidityPressure
High93 °F (Jan 23, 3:00 PM)94% (Jan 21, 2:00 AM)29.98 "Hg (Jan 21, 2:00 AM)
Low50 °F (Jan 26, 5:00 AM)13% (Jan 18, 5:00 PM)29.62 "Hg (Jan 23, 5:00 PM)
Average72 °F50%29.81 "Hg
* Reported Jan 18 1:00 AM — Feb 2 1:00 AM, Wagga Wagga, Weather by CustomWeather, © 2014

Note: Actual official high and low records may vary slightly from our data, if they occured in-between our weather recording intervals... More about our weather records

Advertising

Wagga Wagga weather history for previous 24 hours

 ConditionsComfort  
Time TempWeatherWind HumidityBarometerVisibility
1:00 AM
Feb 2
63 °FMild.8 mph73%29.86 "HgN/A
12:00 AM64 °FClear.9 mph68%29.86 "HgN/A
11:00 PM
Feb 1
66 °FClear.15 mph64%29.86 "Hg10 mi
10:00 PM70 °FThunderstorms. Passing clouds.21 mph57%29.83 "HgN/A
9:54 PM72 °FThunderstorms. Passing clouds.18 mph47%29.83 "HgN/A
9:00 PM73 °FThundershowers. Passing clouds.10 mph38%29.77 "HgN/A
8:00 PM75 °FThunderstorms. Passing clouds.20 mph36%29.77 "HgN/A
7:00 PM82 °FScattered showers. Passing clouds.6 mph25%29.71 "HgN/A
6:00 PM84 °FScattered showers. Passing clouds.7 mph23%29.71 "HgN/A
5:00 PM84 °FPassing clouds.6 mph27%29.71 "HgN/A
4:00 PM82 °FPassing clouds.7 mph26%29.74 "HgN/A
3:00 PM81 °FPassing clouds.7 mph30%29.74 "HgN/A
2:00 PM79 °FSunny.6 mph32%29.77 "HgN/A
1:00 PM77 °FSunny.8 mph36%29.77 "Hg10 mi
12:00 PM77 °FPassing clouds.6 mph42%29.80 "HgN/A
11:00 AM72 °FScattered clouds.6 mph50%29.80 "HgN/A
10:00 AM68 °FPassing clouds.5 mph56%29.83 "HgN/A
9:00 AM64 °FSunny.No wind64%29.80 "Hg10 mi
8:00 AM61 °FSunny.No wind68%29.80 "Hg10 mi
7:00 AM57 °FSunny.5 mph77%29.77 "Hg10 mi
6:00 AM55 °FClear.5 mph77%29.77 "Hg10 mi
5:00 AM57 °FClear.5 mph72%29.74 "HgN/A
4:00 AM59 °FClear.8 mph68%29.74 "HgN/A
3:00 AM59 °FClear.5 mph68%29.74 "HgN/A
2:00 AM61 °FClear.No wind63%29.77 "HgN/A
Weather by CustomWeather, © 2014

See weather overviewHow to use our weather pages